Weather Roundup
Issued by NWS Chicago, IL

Home | Current Version | Previous Version | Text Only | Print | Product List | Glossary On
Versions: 1 2 3 4 5 6 7 8 9 10 11 12 13 14 15 16 17 18 19 20 21 22 23 24 25 26 27 28 29 30 31 32 33 34 35 36 37 38 39 40 41 42 43 44 45 46 47 48 49 50
000
NZUS59 KLOT 190706
HRRLOT

CHICAGO AREA WEATHER ROUNDUP
NATIONAL WEATHER SERVICE CHICAGO/ROMEOVILLE IL
200 AM CDT FRI SEP 19 2014

NOTE: "FAIR" INDICATES FEW OR NO CLOUDS BELOW 12,000 FEET WITH NO
SIGNIFICANT WEATHER AND/OR OBSTRUCTIONS TO VISIBILITY.

* THESE STATIONS ARE NOT UNDER NWS QUALITY CONTROL. THEY ALSO MAY NOT
  REPORT WEATHER SUCH AS PRECIPITATION OR FOG.

ILZ005-006-012>014-019>023-190800-
NORTHEAST ILLINOIS

CITY           SKY/WX    TMP DP  RH WIND       PRES   REMARKS
OHARE          CLEAR     56  54  93 N3        30.16S
MIDWAY         CLEAR     61  58  90 CALM      30.16R
AURORA         FOG       52  50  93 CALM      30.16S VSB 3/4
LANSING*       CLEAR     55  52  91 SE6       30.16R
JOLIET*        CLEAR     57  54  91 CALM      30.16S FOG
WAUKEGAN       CLEAR     54  54 100 CALM      30.16F FOG
DUPAGE AIRPORT PTCLDY    56  54  93 E6        30.15S FOG
WHEELING       CLEAR     53  51  93 CALM      30.18S
KANKAKEE*      CLEAR     52  51  99 NE3       30.15S FOG
MORRIS*        FOG       51  51 100 CALM      30.15R VSB 1/4
LEWIS AIRPORT* CLEAR     56  56 100 E6        30.15S FOG
NORTHERLY IS     N/A     61  55  81 SE5         N/A
$$

WIZ051-052-058>065-066-070>072-190800-
SOUTHEAST WISCONSIN

CITY           SKY/WX    TMP DP  RH WIND       PRES   REMARKS
MILWAUKEE      MOCLDY    52  49  89 CALM      30.17F
KENOSHA*       FOG       49  49 100 E5        30.17F VSB<1/4
RACINE*        FOG       51  50  96 CALM      30.18F VSB 3/4
BURLINGTON     CLOUDY    47  47 100 CALM      30.16F FOG
WAUKESHA       FOG       45  45 100 CALM      30.17F VSB 1/2
WEST BEND      FOG       45  43  93 CALM      30.16F VSB 3/4
$$

INZ001>003-010>013-019-020-190800-
NORTHWEST INDIANA

CITY           SKY/WX    TMP DP  RH WIND       PRES   REMARKS
GARY*          CLEAR     58  53  81 SE7       30.17R
MICHIGAN CITY* NOT AVBL
RENSSELAER*    NOT AVBL
VALPARAISO     CLEAR     49  47  93 E7        30.17F
$$

LMZ740>746-190800-
SOUTHERN LAKE MICHIGAN

STATION/POSITION TIME  SKY/WX   TEMP WIND        PRES    VSBY
                                AIR  DIR/SP/G
                 (UTC)          (F)  (DEG/KT/KT) (MB)    (MI)
HARRISON CRIB    0700            63  130/ 12/ 14   N/A
BURNHAM HARBOR   0700            61  120/  5/  9   N/A
CALUMET HARBOR   0700            62  110/  6/  9 1019.9F
BURNS HARBOR     NOT AVBL
MICHIGAN CITY    0700            58  110/ 10/ 14   N/A
$$

ABBREVIATIONS USED IN REMARKS
   TC - TEMPERATURE IN CELSIUS
  WCI - WIND CHILL INDEX
   HX - HEAT INDEX
  VSB - VISIBILITY
$$


USA.gov is the U.S. government's official web portal to all federal, state and local government web resources and services.